DW4993 Weather Reports


Display with metric or nautical units.
time (UTC)temp
F
wind
direction
speed
MPH
gust
MPH
rain 1hr
in
rain 24hr
in
rain mn
in
humidity
%
barometer
mb
20260503225305 68 44 7.0 17.0 0.00 0.00 0.00 29 1005.1
20260503224806 69 38 8.0 17.0 0.00 0.00 0.00 28 1005.1
20260503224305 69 59 7.0 17.0 0.00 0.00 0.00 27 1005.0
20260503223805 70 35 6.0 16.0 0.00 0.00 0.00 27 1004.9
20260503223304 71 60 10.0 18.0 0.00 0.00 0.00 26 1004.9
20260503222806 71 60 8.0 21.0 0.00 0.00 0.00 26 1004.9
20260503222305 72 69 7.0 21.0 0.00 0.00 0.00 25 1004.8
20260503221805 72 50 6.0 16.0 0.00 0.00 0.00 25 1004.8
20260503221305 73 3 4.0 12.0 0.00 0.00 0.00 25 1004.7
20260503220806 73 37 4.0 12.0 0.00 0.00 0.00 25 1004.8
20260503220304 73 31 6.0 12.0 0.00 0.00 0.00 26 1004.8
20260503215805 73 64 5.0 12.0 0.00 0.00 0.00 24 1004.9
20260503215306 73 32 6.0 12.0 0.00 0.00 0.00 25 1004.9
20260503214805 72 28 3.0 9.0 0.00 0.00 0.00 26 1005.0
20260503214305 72 42 5.0 10.0 0.00 0.00 0.00 25 1005.0
20260503213805 72 75 3.0 9.0 0.00 0.00 0.00 24 1005.0
20260503213305 73 15 5.0 9.0 0.00 0.00 0.00 24 1005.2
20260503212805 72 36 6.0 12.0 0.00 0.00 0.00 25 1005.2
20260503211804 72 77 2.0 9.0 0.00 0.00 0.00 24 1005.2
20260503211305 72 23 4.0 14.0 0.00 0.00 0.00 24 1005.3
20260503210805 72 35 4.0 9.0 0.00 0.00 0.00 25 1005.3
20260503205805 72 60 5.0 12.0 0.00 0.00 0.00 25 1005.4
20260503205305 72 41 3.0 10.0 0.00 0.00 0.00 24 1005.5
20260503204805 71 44 3.0 10.0 0.00 0.00 0.00 26 1005.6
20260503204304 71 61 5.0 12.0 0.00 0.00 0.00 25 1005.5
20260503203806 71 49 5.0 12.0 0.00 0.00 0.00 25 1005.6
20260503203305 71 50 5.0 10.0 0.00 0.00 0.00 25 1005.7
20260503202305 71 55 6.0 12.0 0.00 0.00 0.00 26 1005.8
20260503201806 71 22 3.0 15.0 0.00 0.00 0.00 26 1005.8
20260503201305 71 56 5.0 9.0 0.00 0.00 0.00 25 1005.9
20260503200805 71 215 3.0 9.0 0.00 0.00 0.00 24 1005.9
20260503200305 70 59 3.0 9.0 0.00 0.00 0.00 27 1005.9
20260503195806 70 28 4.0 10.0 0.00 0.00 0.00 26 1006.0
20260503195305 71 47 3.0 12.0 0.00 0.00 0.00 26 1006.1
20260503194805 71 27 5.0 12.0 0.00 0.00 0.00 26 1006.2
20260503194305 71 41 5.0 12.0 0.00 0.00 0.00 25 1006.2
20260503193305 71 36 4.0 13.0 0.00 0.00 0.00 25 1006.2
20260503192805 71 28 2.0 9.0 0.00 0.00 0.00 24 1006.3
20260503191806 70 282 4.0 8.0 0.00 0.00 0.00 25 1006.5
20260503191305 70 37 3.0 9.0 0.00 0.00 0.00 25 1006.6
20260503190805 70 358 5.0 10.0 0.00 0.00 0.00 26 1006.6
20260503190305 70 26 4.0 9.0 0.00 0.00 0.00 26 1006.7
20260503185806 69 17 6.0 12.0 0.00 0.00 0.00 26 1006.9
20260503185305 69 1 5.0 9.0 0.00 0.00 0.00 26 1006.9
20260503184805 69 1 6.0 12.0 0.00 0.00 0.00 26 1007.1
20260503184305 69 27 4.0 9.0 0.00 0.00 0.00 27 1007.1
20260503183806 68 23 3.0 12.0 0.00 0.00 0.00 28 1007.2
20260503183305 68 44 3.0 12.0 0.00 0.00 0.00 28 1007.2
20260503182805 68 36 6.0 12.0 0.00 0.00 0.00 28 1007.3
20260503182305 68 30 5.0 9.0 0.00 0.00 0.00 28 1007.3
20260503181805 68 13 5.0 10.0 0.00 0.00 0.00 27 1007.5
20260503181306 68 44 4.0 12.0 0.00 0.00 0.00 27 1007.6
20260503180805 68 39 6.0 13.0 0.00 0.00 0.00 27 1007.6
20260503175806 68 52 5.0 9.0 0.00 0.00 0.00 26 1007.7
20260503175305 68 55 5.0 10.0 0.00 0.00 0.00 27 1007.8
20260503174805 68 21 5.0 10.0 0.00 0.00 0.00 26 1007.9
20260503174305 68 46 6.0 13.0 0.00 0.00 0.00 26 1007.9
20260503173806 68 21 6.0 12.0 0.00 0.00 0.00 27 1008.0
20260503173305 68 15 5.0 10.0 0.00 0.00 0.00 27 1008.1
20260503172305 68 0 6.0 12.0 0.00 0.00 0.00 28 1008.2
20260503171806 68 3 2.0 10.0 0.00 0.00 0.00 27 1008.3
20260503171305 68 16 5.0 9.0 0.00 0.00 0.00 27 1008.3
20260503170805 68 29 3.0 10.0 0.00 0.00 0.00 28 1008.3
20260503170305 67 18 5.0 14.0 0.00 0.00 0.00 28 1008.4
20260503150306 56 335 2.0 3.0 0.00 0.00 0.00 40 1009.3
20260503140305 50 330 0.0 0.0 0.00 0.00 0.00 45 1009.6
20260503131305 43 330 0.0 0.0 0.00 0.00 0.00 53 1009.7
20260503130805 43 330 0.0 0.0 0.00 0.00 0.00 55 1009.7
20260503110804 44 330 0.0 0.0 0.00 0.00 0.00 50 1009.8
20260503110305 44 330 0.0 0.0 0.00 0.00 0.00 49 1009.9
20260503090305 47 329 1.0 3.0 0.00 0.00 0.00 44 1009.8
20260503080805 49 268 0.0 1.0 0.00 0.00 0.00 40 1009.8
20260503080305 49 268 1.0 2.0 0.00 0.00 0.00 39 1009.8
20260503072805 51 262 0.0 2.0 0.00 0.00 0.00 36 1009.9
20260503071805 51 256 0.0 1.0 0.00 0.00 0.00 36 1009.8
20260503071305 51 256 0.0 1.0 0.00 0.00 0.00 36 1009.7
20260503070805 52 256 0.0 1.0 0.00 0.00 0.00 36 1009.8
20260503070305 52 256 0.0 2.0 0.00 0.00 0.00 36 1009.8
20260503060305 53 220 0.0 0.0 0.00 0.00 0.00 41 1009.6
20260503054806 53 220 0.0 2.0 0.00 0.00 0.00 44 1009.5
20260503054305 53 218 1.0 2.0 0.00 0.00 0.00 44 1009.6
20260503053805 52 218 1.0 2.0 0.00 0.00 0.00 47 1009.5
20260503053305 53 205 0.0 2.0 0.00 0.00 0.00 54 1009.6
20260503052806 53 202 0.0 0.0 0.00 0.00 0.00 55 1009.6
20260503052305 54 202 0.0 0.0 0.00 0.00 0.00 54 1009.6
20260503051804 54 202 0.0 0.0 0.00 0.00 0.00 54 1009.6
20260503050805 55 202 0.0 2.0 0.00 0.00 0.00 53 1009.5
20260503050305 56 202 1.0 3.0 0.00 0.00 0.00 53 1009.5
20260503045805 56 202 1.0 3.0 0.00 0.00 0.00 53 1009.5
20260503045305 56 202 2.0 3.0 0.00 0.00 0.00 52 1009.5
20260503044806 57 200 1.0 2.0 0.00 0.00 0.00 51 1009.6
20260503044305 57 200 1.0 3.0 0.00 0.00 0.00 51 1009.6
20260503043806 57 200 1.0 2.0 0.00 0.00 0.00 50 1009.6
20260503043305 58 200 1.0 3.0 0.00 0.00 0.00 50 1009.6
20260503042805 58 202 2.0 5.0 0.00 0.00 0.00 49 1009.5
20260503042305 58 215 2.0 3.0 0.00 0.00 0.00 48 1009.5
20260503041805 59 231 3.0 5.0 0.00 0.00 0.00 48 1009.5
20260503041306 59 229 3.0 8.0 0.00 0.00 0.00 47 1009.4
20260503040805 59 212 5.0 9.0 0.00 0.00 0.00 47 1009.3
20260503040305 59 212 4.0 9.0 0.00 0.00 0.00 46 1009.3
20260503035306 59 205 3.0 7.0 0.00 0.00 0.00 46 1009.2
20260503034805 59 212 4.0 8.0 0.00 0.00 0.00 46 1009.2
20260503034304 59 190 3.0 6.0 0.00 0.00 0.00 45 1009.2
20260503032305 61 209 1.0 3.0 0.00 0.00 0.00 43 1009.1
20260503031805 61 196 3.0 7.0 0.00 0.00 0.00 42 1009.0
20260503031306 61 203 1.0 3.0 0.00 0.00 0.00 42 1009.0
20260503030805 62 197 2.0 9.0 0.00 0.00 0.00 41 1009.0
20260503025805 62 200 3.0 6.0 0.00 0.00 0.00 40 1008.8
20260503025305 62 209 2.0 6.0 0.00 0.00 0.00 40 1008.8
20260503024805 63 201 1.0 5.0 0.00 0.00 0.00 39 1008.8
20260503024304 63 193 2.0 6.0 0.00 0.00 0.00 39 1008.8
20260503023805 64 215 3.0 8.0 0.00 0.00 0.00 38 1008.8
20260503023305 64 211 3.0 7.0 0.00 0.00 0.00 37 1008.8
20260503022805 64 214 3.0 7.0 0.00 0.00 0.00 37 1008.7
20260503022305 65 193 4.0 7.0 0.00 0.00 0.00 36 1008.7
20260503021305 65 203 2.0 9.0 0.00 0.00 0.00 35 1008.8
20260503020805 66 208 3.0 8.0 0.00 0.00 0.00 35 1008.8
20260503020304 66 203 4.0 9.0 0.00 0.00 0.00 34 1008.8
20260503015305 67 197 2.0 8.0 0.00 0.00 0.00 33 1008.9
20260503014305 68 204 4.0 8.0 0.00 0.00 0.00 31 1009.0
20260503013806 69 192 3.0 8.0 0.00 0.00 0.00 31 1009.0
20260503013305 69 202 3.0 7.0 0.00 0.00 0.00 30 1009.1
20260503012804 69 194 4.0 10.0 0.00 0.00 0.00 30 1009.1
20260503012306 70 201 5.0 8.0 0.00 0.00 0.00 30 1009.3
20260503011305 70 204 3.0 8.0 0.00 0.00 0.00 29 1009.3
20260503010805 70 193 3.0 7.0 0.00 0.00 0.00 29 1009.3
20260503010306 70 234 3.0 9.0 0.00 0.00 0.00 29 1009.3
20260503005305 71 247 3.0 7.0 0.00 0.00 0.00 28 1009.4
20260503004305 70 233 2.0 7.0 0.00 0.00 0.00 29 1009.6
20260503003804 70 226 2.0 3.0 0.00 0.00 0.00 29 1009.6
20260503003304 70 214 3.0 10.0 0.00 0.00 0.00 29 1009.7
20260503002806 70 221 3.0 10.0 0.00 0.00 0.00 29 1009.7
20260503002305 70 192 3.0 8.0 0.00 0.00 0.00 29 1009.7
20260503001305 70 235 3.0 7.0 0.00 0.00 0.00 29 1009.9
20260503000806 70 247 3.0 7.0 0.00 0.00 0.00 29 1009.9
20260503000305 70 200 5.0 9.0 0.00 0.00 0.00 30 1010.0
20260502235804 70 173 3.0 8.0 0.00 0.00 0.00 29 1010.1
20260502235305 70 219 2.0 3.0 0.00 0.00 0.00 30 1010.1
20260502234806 70 212 3.0 9.0 0.00 0.00 0.00 29 1010.1
20260502233305 70 219 1.0 5.0 0.00 0.00 0.00 30 1010.2
20260502232805 70 238 3.0 8.0 0.00 0.00 0.00 30 1010.4
20260502232305 70 235 6.0 10.0 0.00 0.00 0.00 29 1010.5
20260502231805 70 234 1.0 6.0 0.00 0.00 0.00 30 1010.5
20260502231304 71 213 4.0 8.0 0.00 0.00 0.00 29 1010.7
20260502230806 71 204 3.0 6.0 0.00 0.00 0.00 29 1010.7
20260502230304 70 186 2.0 7.0 0.00 0.00 0.00 30 1010.8
20260502225805 70 187 3.0 7.0 0.00 0.00 0.00 30 1010.9